Private Wetterstation Wechselburg
Wetterdaten: Woche 20.02.23 - 26.02.23 (KW8)
Datum Zeit Temp. +2m Bodentemp. Temp.+5cm Temp. Wind Windchill X Diff Temp. Feuchte +2m Feuchte +5cm Luftdruck Regen Wind Richtung Sonnenschein Taupunkt Windchill Windben
20.02.2023 00:00 1,4 C 8,1 C -21,4 C 1,9 C 1,9 C 0,5 C 89 % 99 % 1024,1 hPa 0,0 l/m 0,0 km/h (0 Bft) N 0,00 h -0,2 C 1,9 C 0,0 km/h (0 Bft)
20.02.2023 01:00 2,0 C 8,0 C -21,8 C 2,8 C 2,8 C 0,8 C 89 % 99 % 1023,6 hPa 0,0 l/m 0,0 km/h (0 Bft) N 0,00 h 0,4 C 2,8 C 0,0 km/h (0 Bft)
20.02.2023 02:00 3,2 C 8,0 C -18,6 C 4,1 C 4,1 C 0,9 C 89 % 99 % 1023,0 hPa 0,0 l/m 1,5 km/h (1 Bft) SW 0,00 h 1,5 C 4,1 C 3,4 km/h (1 Bft)
20.02.2023 03:00 4,3 C 7,9 C -16,9 C 5,0 C 5,0 C 0,7 C 89 % 99 % 1022,8 hPa 0,0 l/m 3,7 km/h (1 Bft) SW 0,00 h 2,7 C 4,9 C 4,6 km/h (1 Bft)
20.02.2023 04:00 5,0 C 7,9 C -16,5 C 5,1 C 4,9 C 0,2 C 89 % 99 % 1022,1 hPa 0,0 l/m 4,7 km/h (1 Bft) SW 0,00 h 3,4 C 4,1 C 7,1 km/h (2 Bft)
20.02.2023 05:00 5,5 C 7,8 C -18,1 C 5,4 C 5,1 C 0,0 C 89 % 99 % 1021,8 hPa 0,0 l/m 5,1 km/h (1 Bft) SW 0,00 h 3,8 C 4,3 C 6,7 km/h (2 Bft)
20.02.2023 06:00 6,1 C 7,6 C -20,3 C 5,8 C 5,1 C 0,0 C 88 % 99 % 1021,9 hPa 0,0 l/m 6,8 km/h (2 Bft) SW 0,00 h 4,3 C 3,7 C 8,7 km/h (2 Bft)
20.02.2023 07:00 6,1 C 7,6 C -20,4 C 6,3 C 6,3 C 0,2 C 86 % 99 % 1021,0 hPa 0,0 l/m 2,4 km/h (1 Bft) SW 0,08 h 3,9 C 6,2 C 2,6 km/h (1 Bft)
20.02.2023 08:00 6,3 C 7,5 C -21,2 C 6,8 C 6,8 C 0,5 C 83 % 99 % 1020,8 hPa 0,0 l/m 1,7 km/h (1 Bft) S 0,00 h 3,5 C 6,8 C 4,0 km/h (1 Bft)
20.02.2023 09:00 7,0 C 7,5 C -20,4 C 7,9 C 7,8 C 0,9 C 80 % 99 % 1020,2 hPa 0,0 l/m 4,4 km/h (1 Bft) S 0,00 h 3,7 C 7,4 C 9,1 km/h (2 Bft)
20.02.2023 10:00 8,1 C 7,6 C -17,9 C 9,0 C 8,9 C 0,9 C 77 % 99 % 1020,1 hPa 0,0 l/m 6,4 km/h (2 Bft) S 0,00 h 4,3 C 8,2 C 8,7 km/h (2 Bft)
20.02.2023 11:00 9,2 C 7,6 C -14,8 C 10,1 C 9,8 C 0,9 C 73 % 99 % 1019,1 hPa 0,0 l/m 10,0 km/h (2 Bft) SW 0,00 h 4,6 C 8,8 C 14,6 km/h (3 Bft)
20.02.2023 12:00 10,4 C 7,6 C -12,4 C 11,8 C 11,6 C 1,4 C 69 % 97 % 1018,6 hPa 0,0 l/m 11,8 km/h (2 Bft) SW 0,00 h 4,9 C 11,6 C 14,5 km/h (3 Bft)
20.02.2023 13:00 10,9 C 7,8 C -14,2 C 11,9 C 11,6 C 1,0 C 67 % 80 % 1017,5 hPa 0,0 l/m 10,2 km/h (2 Bft) SW 0,00 h 5,0 C 11,6 C 14,8 km/h (3 Bft)
20.02.2023 14:00 11,6 C 7,8 C -11,6 C 13,1 C 13,1 C 1,5 C 66 % 68 % 1016,8 hPa 0,0 l/m 7,5 km/h (2 Bft) SW 0,00 h 5,4 C 13,1 C 9,0 km/h (2 Bft)
20.02.2023 15:00 12,1 C 8,0 C -8,9 C 13,3 C 13,2 C 1,2 C 66 % 78 % 1016,8 hPa 0,0 l/m 7,2 km/h (2 Bft) W-SW 0,00 h 5,9 C 13,2 C 8,8 km/h (2 Bft)
20.02.2023 16:00 11,8 C 8,1 C -11,4 C 12,4 C 12,4 C 0,5 C 69 % 97 % 1016,7 hPa 0,0 l/m 5,0 km/h (1 Bft) SW 0,00 h 6,2 C 12,4 C 8,5 km/h (2 Bft)
20.02.2023 17:00 12,1 C 8,2 C -9,3 C 12,3 C 12,2 C 0,2 C 69 % 99 % 1016,9 hPa 0,0 l/m 6,5 km/h (2 Bft) SW 0,33 h 6,6 C 12,2 C 10,3 km/h (2 Bft)
20.02.2023 18:00 12,1 C 8,4 C -7,3 C 12,0 C 11,5 C 0,0 C 69 % 99 % 1017,0 hPa 0,0 l/m 8,6 km/h (2 Bft) SW 0,00 h 6,5 C 11,5 C 15,8 km/h (3 Bft)
20.02.2023 19:00 11,6 C 8,6 C -9,0 C 11,6 C 11,5 C 0,0 C 71 % 99 % 1017,4 hPa 0,0 l/m 3,6 km/h (1 Bft) S-SW 0,00 h 6,4 C 11,5 C 4,7 km/h (1 Bft)
20.02.2023 20:00 10,7 C 8,7 C -14,7 C 10,8 C 10,8 C 0,1 C 74 % 99 % 1017,5 hPa 0,0 l/m 3,2 km/h (1 Bft) S 0,00 h 6,3 C 10,8 C 5,9 km/h (2 Bft)
20.02.2023 21:00 10,1 C 8,8 C -18,9 C 10,1 C 10,1 C 0,1 C 77 % 99 % 1017,7 hPa 0,0 l/m 4,0 km/h (1 Bft) SW 0,00 h 6,2 C 10,1 C 6,1 km/h (2 Bft)
20.02.2023 22:00 9,7 C 8,9 C -22,7 C 9,5 C 9,2 C 0,0 C 78 % 98 % 1017,4 hPa 0,0 l/m 6,3 km/h (2 Bft) W-SW 0,00 h 6,1 C 8,5 C 8,4 km/h (2 Bft)
20.02.2023 23:00 9,5 C 8,9 C -26,6 C 9,3 C 8,3 C 0,0 C 78 % 97 % 1017,1 hPa 0,0 l/m 10,3 km/h (2 Bft) SW 0,00 h 5,8 C 6,6 C 12,5 km/h (3 Bft)
21.02.2023 00:00 9,3 C 8,9 C -31,7 C 9,0 C 7,9 C 0,0 C 77 % 95 % 1017,3 hPa 0,0 l/m 11,7 km/h (2 Bft) S-SW 0,00 h 5,5 C 5,9 C 15,6 km/h (3 Bft)
21.02.2023 01:00 9,2 C 8,9 C -36,8 C 8,8 C 7,8 C 0,0 C 77 % 94 % 1016,8 hPa 0,0 l/m 11,8 km/h (2 Bft) SW 0,00 h 5,3 C 5,6 C 16,4 km/h (3 Bft)
21.02.2023 02:00 9,2 C 8,9 C -33,2 C 8,9 C 8,2 C 0,0 C 77 % 95 % 1016,4 hPa 0,0 l/m 9,3 km/h (2 Bft) SW 0,00 h 5,5 C 6,6 C 11,7 km/h (2 Bft)
21.02.2023 03:00 9,3 C 8,9 C -32,2 C 9,1 C 8,5 C 0,0 C 78 % 95 % 1016,5 hPa 0,0 l/m 8,2 km/h (2 Bft) SW 0,00 h 5,7 C 7,2 C 10,3 km/h (2 Bft)
21.02.2023 04:00 9,5 C 8,9 C -29,5 C 9,3 C 8,7 C 0,0 C 78 % 96 % 1015,9 hPa 0,0 l/m 8,3 km/h (2 Bft) SW 0,00 h 5,8 C 7,4 C 10,1 km/h (2 Bft)
21.02.2023 05:00 9,6 C 9,0 C -29,9 C 9,2 C 8,3 C 0,0 C 79 % 96 % 1015,6 hPa 0,0 l/m 10,4 km/h (2 Bft) SW 0,00 h 6,1 C 6,5 C 11,8 km/h (2 Bft)
21.02.2023 06:00 9,6 C 9,0 C -31,4 C 9,3 C 8,4 C 0,0 C 79 % 95 % 1015,8 hPa 0,0 l/m 10,9 km/h (2 Bft) S-SW 0,00 h 6,1 C 6,5 C 13,4 km/h (3 Bft)
21.02.2023 07:00 9,7 C 9,0 C -31,8 C 9,3 C 8,6 C 0,0 C 78 % 95 % 1015,8 hPa 0,0 l/m 10,1 km/h (2 Bft) SW 0,00 h 6,0 C 7,0 C 10,3 km/h (2 Bft)
21.02.2023 08:00 9,6 C 9,2 C -32,6 C 9,4 C 8,7 C 0,0 C 79 % 95 % 1016,7 hPa 0,0 l/m 9,6 km/h (2 Bft) SW 0,00 h 6,1 C 7,2 C 13,0 km/h (3 Bft)
21.02.2023 09:00 9,8 C 9,1 C -33,0 C 10,0 C 9,7 C 0,2 C 80 % 95 % 1017,3 hPa 0,0 l/m 9,3 km/h (2 Bft) SW 0,00 h 6,5 C 8,8 C 12,9 km/h (3 Bft)
21.02.2023 10:00 10,2 C 9,1 C -33,0 C 10,6 C 10,3 C 0,4 C 79 % 95 % 1017,1 hPa 0,0 l/m 9,0 km/h (2 Bft) SW 0,00 h 6,7 C 9,9 C 13,0 km/h (3 Bft)
21.02.2023 11:00 10,7 C 9,2 C -33,8 C 11,3 C 11,2 C 0,6 C 77 % 94 % 1017,3 hPa 0,0 l/m 8,6 km/h (2 Bft) SW 0,00 h 6,8 C 11,2 C 11,3 km/h (2 Bft)
21.02.2023 12:00 11,0 C 9,3 C -34,4 C 11,5 C 11,5 C 0,5 C 75 % 94 % 1017,5 hPa 0,0 l/m 7,1 km/h (2 Bft) SW 0,00 h 6,8 C 11,5 C 8,9 km/h (2 Bft)
21.02.2023 13:00 11,0 C 9,3 C -33,7 C 11,7 C 11,6 C 0,6 C 76 % 95 % 1017,0 hPa 0,0 l/m 5,7 km/h (1 Bft) SW 0,00 h 6,9 C 11,6 C 7,7 km/h (2 Bft)
21.02.2023 14:00 11,6 C 9,4 C -34,6 C 12,9 C 12,9 C 1,4 C 75 % 92 % 1016,4 hPa 0,0 l/m 5,9 km/h (2 Bft) S 0,00 h 7,4 C 12,9 C 8,2 km/h (2 Bft)
21.02.2023 15:00 11,7 C 9,4 C -32,3 C 12,8 C 12,8 C 1,0 C 75 % 93 % 1016,1 hPa 0,0 l/m 5,0 km/h (1 Bft) SW 0,00 h 7,4 C 12,8 C 7,0 km/h (2 Bft)
21.02.2023 16:00 11,8 C 9,5 C -33,2 C 12,7 C 12,7 C 0,9 C 74 % 95 % 1015,9 hPa 0,0 l/m 5,9 km/h (2 Bft) S-SW 0,13 h 7,4 C 12,7 C 6,4 km/h (2 Bft)
21.02.2023 17:00 11,2 C 9,6 C -35,4 C 11,4 C 11,4 C 0,2 C 74 % 94 % 1016,4 hPa 0,0 l/m 4,2 km/h (1 Bft) SW 0,08 h 6,8 C 11,4 C 6,1 km/h (2 Bft)
21.02.2023 18:00 10,5 C 9,7 C -36,8 C 10,4 C 10,3 C 0,0 C 77 % 94 % 1016,7 hPa 0,0 l/m 0,6 km/h (0 Bft) N 0,00 h 6,6 C 10,3 C 0,7 km/h (0 Bft)
21.02.2023 19:00 10,0 C 9,7 C -37,4 C 10,1 C 10,1 C 0,1 C 79 % 93 % 1017,1 hPa 0,0 l/m 0,4 km/h (0 Bft) SW 0,00 h 6,5 C 10,1 C 0,6 km/h (0 Bft)
21.02.2023 20:00 9,8 C 9,8 C -39,1 C 9,9 C 9,9 C 0,1 C 80 % 93 % 1017,4 hPa 0,0 l/m 0,4 km/h (0 Bft) N 0,00 h 6,5 C 9,9 C 0,6 km/h (0 Bft)
21.02.2023 21:00 9,3 C 9,8 C -39,5 C 9,3 C 9,3 C 0,0 C 82 % 92 % 1017,6 hPa 0,0 l/m 0,0 km/h (0 Bft) N 0,00 h 6,3 C 9,3 C 0,0 km/h (0 Bft)
21.02.2023 22:00 9,0 C 9,8 C -39,4 C 9,0 C 8,9 C 0,0 C 83 % 93 % 1017,6 hPa 0,0 l/m 0,0 km/h (0 Bft) N 0,00 h 6,2 C 8,9 C 0,0 km/h (0 Bft)
21.02.2023 23:00 8,7 C 9,8 C -39,6 C 8,8 C 8,8 C 0,1 C 83 % 92 % 1017,6 hPa 0,0 l/m 0,0 km/h (0 Bft) N 0,00 h 6,0 C 8,8 C 0,0 km/h (0 Bft)
22.02.2023 00:00 8,5 C 9,8 C -39,6 C 8,6 C 8,6 C 0,1 C 84 % 92 % 1017,3 hPa 0,0 l/m 0,0 km/h (0 Bft) N 0,00 h 5,9 C 8,6 C 0,0 km/h (0 Bft)
22.02.2023 01:00 8,3 C 9,8 C -39,6 C 8,3 C 8,3 C 0,0 C 84 % 92 % 1016,9 hPa 0,0 l/m 0,0 km/h (0 Bft) N 0,00 h 5,8 C 8,3 C 0,0 km/h (0 Bft)
22.02.2023 02:00 7,9 C 9,9 C -39,6 C 8,1 C 8,1 C 0,2 C 85 % 93 % 1017,1 hPa 0,0 l/m 0,0 km/h (0 Bft) N 0,00 h 5,5 C 8,1 C 0,0 km/h (0 Bft)
22.02.2023 03:00 7,6 C 9,9 C -39,6 C 7,7 C 7,7 C 0,1 C 86 % 93 % 1016,4 hPa 0,0 l/m 0,0 km/h (0 Bft) N 0,00 h 5,4 C 7,7 C 0,0 km/h (0 Bft)
22.02.2023 04:00 7,4 C 9,9 C -39,6 C 7,5 C 7,5 C 0,1 C 86 % 93 % 1015,9 hPa 0,0 l/m 0,0 km/h (0 Bft) N 0,00 h 5,2 C 7,5 C 0,0 km/h (0 Bft)
22.02.2023 05:00 7,2 C 9,9 C -39,6 C 7,2 C 7,2 C 0,1 C 87 % 93 % 1016,0 hPa 0,0 l/m 0,0 km/h (0 Bft) N 0,00 h 5,1 C 7,2 C 0,0 km/h (0 Bft)
22.02.2023 06:00 7,1 C 9,9 C -39,6 C 7,2 C 7,2 C 0,1 C 87 % 93 % 1015,6 hPa 0,0 l/m 0,0 km/h (0 Bft) N 0,00 h 5,1 C 7,2 C 0,0 km/h (0 Bft)
22.02.2023 07:00 7,1 C 9,9 C -39,6 C 7,3 C 7,3 C 0,2 C 88 % 93 % 1015,2 hPa 0,0 l/m 0,0 km/h (0 Bft) N 0,00 h 5,2 C 7,3 C 0,0 km/h (0 Bft)
22.02.2023 08:00 7,5 C 9,8 C -39,6 C 8,3 C 8,3 C 0,8 C 88 % 92 % 1015,5 hPa 0,0 l/m 0,0 km/h (0 Bft) N 0,00 h 5,6 C 8,3 C 0,0 km/h (0 Bft)
22.02.2023 09:00 8,2 C 9,6 C -39,6 C 9,7 C 9,7 C 1,5 C 88 % 92 % 1015,6 hPa 0,0 l/m 0,0 km/h (0 Bft) N 0,00 h 6,4 C 9,7 C 0,2 km/h (0 Bft)
22.02.2023 10:00 9,4 C 9,5 C -39,6 C 10,7 C 10,7 C 1,4 C 85 % 92 % 1015,6 hPa 0,0 l/m 1,6 km/h (1 Bft) NO 0,00 h 7,0 C 10,7 C 2,8 km/h (1 Bft)
22.02.2023 11:00 10,2 C 9,4 C -39,6 C 11,9 C 11,9 C 1,7 C 81 % 89 % 1015,6 hPa 0,0 l/m 2,4 km/h (1 Bft) NO 0,00 h 7,1 C 11,9 C 3,3 km/h (1 Bft)
22.02.2023 12:00 11,2 C 9,5 C -39,6 C 14,2 C 14,2 C 3,1 C 76 % 73 % 1015,4 hPa 0,0 l/m 2,7 km/h (1 Bft) O-NO 0,32 h 7,1 C 14,2 C 1,7 km/h (1 Bft)
22.02.2023 13:00 11,6 C 9,5 C -39,6 C 13,6 C 13,6 C 2,0 C 74 % 71 % 1014,9 hPa 0,0 l/m 2,5 km/h (1 Bft) NO 0,00 h 7,2 C 13,6 C 3,5 km/h (1 Bft)
22.02.2023 14:00 12,0 C 9,6 C -39,6 C 14,8 C 14,8 C 2,8 C 74 % 70 % 1014,6 hPa 0,0 l/m 2,8 km/h (1 Bft) O-NO 0,27 h 7,4 C 14,8 C 4,2 km/h (1 Bft)
22.02.2023 15:00 11,9 C 9,7 C -39,6 C 13,4 C 13,4 C 1,5 C 74 % 76 % 1014,4 hPa 0,0 l/m 2,8 km/h (1 Bft) NO 0,00 h 7,4 C 13,4 C 3,5 km/h (1 Bft)
22.02.2023 16:00 11,5 C 9,8 C -39,6 C 12,1 C 12,1 C 0,5 C 75 % 82 % 1013,4 hPa 0,0 l/m 2,2 km/h (1 Bft) O-NO 0,00 h 7,3 C 12,1 C 2,0 km/h (1 Bft)
22.02.2023 17:00 10,6 C 9,9 C -39,6 C 10,5 C 10,2 C 0,0 C 77 % 89 % 1013,4 hPa 0,0 l/m 0,1 km/h (0 Bft) N 0,00 h 6,7 C 10,2 C 0,0 km/h (0 Bft)
22.02.2023 18:00 8,9 C 9,9 C -39,6 C 8,7 C 8,2 C 0,0 C 80 % 92 % 1013,0 hPa 0,0 l/m 0,0 km/h (0 Bft) N 0,00 h 5,6 C 8,2 C 0,0 km/h (0 Bft)
22.02.2023 19:00 8,3 C 10,0 C -39,6 C 8,1 C 7,8 C 0,0 C 82 % 92 % 1013,4 hPa 0,0 l/m 0,1 km/h (0 Bft) N 0,00 h 5,4 C 7,8 C 0,0 km/h (0 Bft)
22.02.2023 20:00 7,5 C 10,0 C -39,6 C 7,3 C 6,9 C 0,0 C 83 % 92 % 1012,9 hPa 0,0 l/m 0,0 km/h (0 Bft) N 0,00 h 4,9 C 6,9 C 0,0 km/h (0 Bft)
22.02.2023 21:00 6,9 C 10,1 C -39,6 C 6,7 C 6,3 C 0,0 C 84 % 92 % 1012,7 hPa 0,0 l/m 0,0 km/h (0 Bft) N 0,00 h 4,5 C 6,3 C 0,0 km/h (0 Bft)
22.02.2023 22:00 6,5 C 10,1 C -39,6 C 6,4 C 6,2 C 0,0 C 86 % 92 % 1012,7 hPa 0,0 l/m 0,0 km/h (0 Bft) N 0,00 h 4,3 C 6,2 C 0,0 km/h (0 Bft)
22.02.2023 23:00 6,1 C 10,1 C -39,6 C 6,0 C 5,8 C 0,0 C 86 % 91 % 1012,8 hPa 0,0 l/m 0,0 km/h (0 Bft) N 0,00 h 4,0 C 5,8 C 0,0 km/h (0 Bft)
23.02.2023 00:00 5,2 C 10,2 C -39,6 C 5,0 C 4,6 C 0,0 C 86 % 92 % 1012,7 hPa 0,0 l/m 0,0 km/h (0 Bft) N 0,00 h 3,1 C 4,6 C 0,0 km/h (0 Bft)
23.02.2023 01:00 4,5 C 10,1 C -39,6 C 4,3 C 3,8 C 0,0 C 87 % 92 % 1012,5 hPa 0,0 l/m 0,0 km/h (0 Bft) N 0,00 h 2,5 C 3,8 C 0,0 km/h (0 Bft)
23.02.2023 02:00 4,2 C 10,0 C -39,6 C 4,2 C 4,0 C 0,0 C 88 % 92 % 1012,5 hPa 0,0 l/m 0,0 km/h (0 Bft) N 0,00 h 2,4 C 4,0 C 0,0 km/h (0 Bft)
23.02.2023 03:00 4,6 C 10,0 C -39,6 C 4,8 C 4,8 C 0,2 C 88 % 92 % 1012,1 hPa 0,0 l/m 0,0 km/h (0 Bft) N 0,00 h 2,8 C 4,8 C 0,0 km/h (0 Bft)
23.02.2023 04:00 4,5 C 9,9 C -39,6 C 4,5 C 4,4 C 0,0 C 88 % 92 % 1011,7 hPa 0,0 l/m 0,0 km/h (0 Bft) N 0,00 h 2,6 C 4,4 C 0,0 km/h (0 Bft)
23.02.2023 05:00 4,2 C 9,8 C -39,6 C 4,1 C 4,0 C 0,0 C 89 % 92 % 1012,0 hPa 0,0 l/m 0,0 km/h (0 Bft) N 0,00 h 2,5 C 4,0 C 0,0 km/h (0 Bft)
23.02.2023 06:00 3,9 C 9,7 C -39,6 C 3,9 C 3,7 C 0,1 C 89 % 92 % 1012,0 hPa 0,0 l/m 0,0 km/h (0 Bft) N 0,00 h 2,2 C 3,7 C 0,0 km/h (0 Bft)
23.02.2023 07:00 3,9 C 9,7 C -39,6 C 4,3 C 4,3 C 0,4 C 89 % 93 % 1012,3 hPa 0,0 l/m 0,0 km/h (0 Bft) N 0,17 h 2,2 C 4,3 C 0,0 km/h (0 Bft)
23.02.2023 08:00 4,5 C 9,6 C -22,6 C 6,1 C 6,1 C 1,6 C 89 % 53 % 1012,4 hPa 0,0 l/m 0,0 km/h (0 Bft) N 0,00 h 2,8 C 6,1 C 0,3 km/h (0 Bft)
23.02.2023 09:00 5,7 C 9,3 C -36,3 C 8,8 C 8,8 C 3,0 C 89 % 84 % 1012,6 hPa 0,0 l/m 0,0 km/h (0 Bft) N 0,42 h 4,0 C 8,8 C 0,2 km/h (0 Bft)
23.02.2023 10:00 8,2 C 9,2 C -39,6 C 11,6 C 11,6 C 3,4 C 89 % 92 % 1013,0 hPa 0,0 l/m 0,3 km/h (0 Bft) N 0,90 h 6,4 C 11,6 C 1,6 km/h (1 Bft)
23.02.2023 11:00 10,9 C 9,1 C -39,6 C 13,9 C 13,9 C 3,0 C 85 % 86 % 1013,0 hPa 0,0 l/m 0,5 km/h (0 Bft) S 0,08 h 8,5 C 13,9 C 1,5 km/h (1 Bft)
23.02.2023 12:00 11,8 C 9,2 C -39,6 C 14,7 C 14,7 C 2,9 C 80 % 79 % 1012,7 hPa 0,0 l/m 0,2 km/h (0 Bft) N 0,47 h 8,5 C 14,7 C 0,6 km/h (0 Bft)
23.02.2023 13:00 12,5 C 9,3 C -39,6 C 15,1 C 15,1 C 2,6 C 77 % 73 % 1012,2 hPa 0,0 l/m 0,3 km/h (0 Bft) N 0,17 h 8,6 C 15,1 C 0,6 km/h (0 Bft)
23.02.2023 14:00 12,8 C 9,4 C -39,6 C 15,0 C 15,0 C 2,2 C 76 % 66 % 1011,9 hPa 0,0 l/m 0,2 km/h (0 Bft) N 0,00 h 8,7 C 15,0 C 0,0 km/h (0 Bft)
23.02.2023 15:00 12,9 C 9,5 C -39,6 C 14,4 C 14,4 C 1,5 C 76 % 67 % 1011,8 hPa 0,0 l/m 0,0 km/h (0 Bft) N 0,00 h 8,8 C 14,4 C 0,2 km/h (0 Bft)
23.02.2023 16:00 12,2 C 9,7 C -39,6 C 12,4 C 12,2 C 0,3 C 77 % 70 % 1011,9 hPa 0,0 l/m 0,0 km/h (0 Bft) N 0,00 h 8,3 C 12,2 C 0,0 km/h (0 Bft)
23.02.2023 17:00 10,9 C 10,2 C -39,6 C 10,5 C 9,8 C 0,0 C 82 % 76 % 1011,7 hPa 0,0 l/m 0,0 km/h (0 Bft) N 0,00 h 7,8 C 9,8 C 0,0 km/h (0 Bft)
23.02.2023 18:00 10,0 C 10,3 C -39,6 C 9,8 C 9,4 C 0,0 C 85 % 87 % 1011,9 hPa 0,7 l/m 0,1 km/h (0 Bft) N 0,00 h 7,7 C 9,4 C 0,0 km/h (0 Bft)
23.02.2023 19:00 9,2 C 10,3 C -39,6 C 9,1 C 8,8 C 0,0 C 87 % 87 % 1011,8 hPa 0,7 l/m 0,0 km/h (0 Bft) N 0,00 h 7,2 C 8,8 C 0,0 km/h (0 Bft)
23.02.2023 20:00 8,6 C 10,3 C -39,6 C 8,6 C 8,4 C 0,0 C 88 % 88 % 1011,8 hPa 0,0 l/m 0,0 km/h (0 Bft) N 0,00 h 6,8 C 8,4 C 0,0 km/h (0 Bft)
23.02.2023 21:00 8,3 C 10,3 C -39,6 C 8,4 C 8,4 C 0,1 C 88 % 89 % 1011,5 hPa 0,0 l/m 0,0 km/h (0 Bft) N 0,00 h 6,5 C 8,4 C 0,0 km/h (0 Bft)
23.02.2023 22:00 8,0 C 10,4 C -39,6 C 8,2 C 8,2 C 0,2 C 89 % 90 % 1011,4 hPa 0,0 l/m 0,2 km/h (0 Bft) N 0,00 h 6,3 C 8,2 C 0,6 km/h (0 Bft)
23.02.2023 23:00 7,5 C 10,3 C -39,6 C 7,6 C 7,6 C 0,1 C 88 % 90 % 1011,4 hPa 0,7 l/m 0,3 km/h (0 Bft) N 0,00 h 5,7 C 7,6 C 0,8 km/h (0 Bft)
24.02.2023 00:00 7,1 C 10,3 C -39,6 C 7,4 C 7,4 C 0,3 C 89 % 91 % 1011,1 hPa 0,0 l/m 0,1 km/h (0 Bft) N 0,00 h 5,4 C 7,4 C 0,7 km/h (0 Bft)
24.02.2023 01:00 6,5 C 10,3 C -39,6 C 6,9 C 6,9 C 0,4 C 89 % 90 % 1010,5 hPa 0,0 l/m 0,2 km/h (0 Bft) N 0,00 h 4,9 C 6,9 C 0,4 km/h (0 Bft)
24.02.2023 02:00 6,1 C 10,3 C -39,6 C 6,4 C 6,4 C 0,3 C 89 % 89 % 1010,3 hPa 0,0 l/m 0,4 km/h (0 Bft) W-SW 0,00 h 4,4 C 6,4 C 1,8 km/h (1 Bft)
24.02.2023 03:00 5,6 C 10,3 C -39,6 C 6,2 C 6,2 C 0,5 C 89 % 88 % 1009,8 hPa 0,0 l/m 0,7 km/h (0 Bft) SW 0,00 h 4,0 C 6,2 C 1,4 km/h (1 Bft)
24.02.2023 04:00 5,2 C 10,2 C -39,6 C 5,8 C 5,8 C 0,5 C 89 % 90 % 1009,3 hPa 0,7 l/m 0,4 km/h (0 Bft) N 0,00 h 3,6 C 5,8 C 0,4 km/h (0 Bft)
24.02.2023 05:00 4,5 C 10,1 C -39,6 C 5,0 C 5,0 C 0,4 C 89 % 91 % 1008,7 hPa 0,0 l/m 0,7 km/h (0 Bft) W-SW 0,00 h 2,9 C 5,0 C 1,6 km/h (1 Bft)
24.02.2023 06:00 3,6 C 10,0 C -39,6 C 3,7 C 3,7 C 0,1 C 89 % 90 % 1008,3 hPa 0,0 l/m 0,2 km/h (0 Bft) N 0,00 h 2,0 C 3,7 C 0,5 km/h (0 Bft)
24.02.2023 07:00 3,1 C 9,9 C -39,6 C 3,4 C 3,4 C 0,3 C 89 % 89 % 1007,8 hPa 0,0 l/m 0,3 km/h (0 Bft) N 0,17 h 1,5 C 3,4 C 0,4 km/h (0 Bft)
24.02.2023 08:00 2,8 C 9,8 C -39,6 C 3,3 C 3,3 C 0,5 C 89 % 88 % 1007,5 hPa 0,0 l/m 0,0 km/h (0 Bft) N 0,00 h 1,1 C 3,3 C 0,0 km/h (0 Bft)
24.02.2023 09:00 2,4 C 9,7 C -39,6 C 3,0 C 3,0 C 0,5 C 89 % 89 % 1007,1 hPa 0,7 l/m 0,1 km/h (0 Bft) N 0,00 h 0,8 C 3,0 C 0,2 km/h (0 Bft)
24.02.2023 10:00 2,5 C 9,6 C -39,6 C 3,9 C 3,9 C 1,4 C 89 % 87 % 1006,6 hPa 0,0 l/m 0,3 km/h (0 Bft) N 0,00 h 0,9 C 3,9 C 0,6 km/h (0 Bft)
24.02.2023 11:00 3,3 C 9,5 C -33,5 C 5,6 C 5,6 C 2,3 C 89 % 72 % 1005,8 hPa 0,0 l/m 2,2 km/h (1 Bft) S 0,00 h 1,7 C 5,6 C 3,6 km/h (1 Bft)
24.02.2023 12:00 5,0 C 9,3 C -39,6 C 7,9 C 7,9 C 3,0 C 89 % 84 % 1004,8 hPa 0,0 l/m 4,0 km/h (1 Bft) SW 0,33 h 3,3 C 7,7 C 7,3 km/h (2 Bft)
24.02.2023 13:00 6,3 C 9,0 C -39,6 C 7,6 C 7,6 C 1,3 C 85 % 80 % 1003,6 hPa 0,0 l/m 4,5 km/h (1 Bft) SW 0,00 h 3,9 C 7,1 C 6,8 km/h (2 Bft)
24.02.2023 14:00 6,4 C 8,9 C -39,6 C 6,8 C 6,7 C 0,4 C 79 % 80 % 1003,0 hPa 0,0 l/m 3,6 km/h (1 Bft) W-SW 0,00 h 3,0 C 6,5 C 6,3 km/h (2 Bft)
24.02.2023 15:00 6,4 C 8,9 C -39,6 C 6,8 C 6,8 C 0,4 C 76 % 77 % 1002,2 hPa 0,0 l/m 3,7 km/h (1 Bft) SW 0,00 h 2,4 C 6,4 C 6,2 km/h (2 Bft)
24.02.2023 16:00 4,8 C 9,0 C -39,6 C 4,4 C 3,4 C 0,0 C 81 % 81 % 1001,8 hPa 0,7 l/m 3,6 km/h (1 Bft) SW 0,00 h 1,8 C 2,6 C 4,8 km/h (1 Bft)
24.02.2023 17:00 3,8 C 9,2 C -39,6 C 3,6 C 3,1 C 0,0 C 86 % 86 % 1001,5 hPa 0,7 l/m 2,7 km/h (1 Bft) SW 0,00 h 1,7 C 3,1 C 4,8 km/h (1 Bft)
24.02.2023 18:00 3,1 C 9,1 C -39,6 C 2,5 C 1,4 C 0,0 C 88 % 86 % 1001,1 hPa 1,4 l/m 4,9 km/h (1 Bft) SW 0,00 h 1,2 C 0,1 C 7,7 km/h (2 Bft)
24.02.2023 19:00 2,5 C 8,9 C -39,6 C 1,9 C 0,6 C 0,0 C 89 % 87 % 1000,9 hPa 2,7 l/m 5,5 km/h (1 Bft) SW 0,00 h 0,9 C -0,9 C 7,2 km/h (2 Bft)
24.02.2023 20:00 2,5 C 8,8 C -39,6 C 2,1 C 1,2 C 0,0 C 89 % 85 % 1000,9 hPa 0,0 l/m 4,7 km/h (1 Bft) S-SW 0,00 h 0,9 C 0,2 C 8,7 km/h (2 Bft)
24.02.2023 21:00 2,8 C 8,7 C -39,6 C 2,4 C 1,6 C 0,0 C 89 % 86 % 1000,5 hPa 0,0 l/m 5,3 km/h (1 Bft) SW 0,00 h 1,1 C 0,0 C 6,9 km/h (2 Bft)
24.02.2023 22:00 2,9 C 8,4 C -39,6 C 2,6 C 1,9 C 0,0 C 89 % 87 % 1000,0 hPa 0,0 l/m 5,8 km/h (2 Bft) SW 0,00 h 1,3 C 0,4 C 7,8 km/h (2 Bft)
24.02.2023 23:00 3,0 C 8,4 C -39,6 C 2,5 C 1,5 C 0,0 C 89 % 86 % 1000,0 hPa 0,7 l/m 5,1 km/h (1 Bft) SW 0,00 h 1,3 C 0,2 C 5,9 km/h (2 Bft)
25.02.2023 00:00 2,6 C 8,5 C -39,6 C 2,1 C 1,1 C 0,0 C 89 % 85 % 999,6 hPa 0,7 l/m 4,9 km/h (1 Bft) SW 0,00 h 1,0 C 0,0 C 9,2 km/h (2 Bft)
25.02.2023 01:00 2,7 C 8,2 C -39,6 C 2,0 C 0,7 C 0,0 C 89 % 86 % 999,5 hPa 0,0 l/m 5,7 km/h (1 Bft) SW 0,00 h 1,0 C -1,0 C 7,9 km/h (2 Bft)
25.02.2023 02:00 2,8 C 8,0 C -39,6 C 2,2 C 0,6 C 0,0 C 89 % 86 % 999,2 hPa 0,0 l/m 7,5 km/h (2 Bft) SW 0,00 h 1,2 C -1,8 C 11,3 km/h (2 Bft)
25.02.2023 03:00 2,8 C 7,9 C -39,6 C 2,2 C 0,5 C 0,0 C 88 % 84 % 999,2 hPa 0,0 l/m 8,0 km/h (2 Bft) SW 0,00 h 1,0 C -2,1 C 10,2 km/h (2 Bft)
25.02.2023 04:00 2,7 C 7,9 C -39,6 C 1,9 C -0,6 C 0,0 C 87 % 84 % 998,9 hPa 0,0 l/m 9,6 km/h (2 Bft) SW 0,00 h 0,8 C -3,9 C 11,7 km/h (2 Bft)
25.02.2023 05:00 2,8 C 7,7 C -39,6 C 2,1 C -0,2 C 0,0 C 86 % 84 % 999,2 hPa 0,0 l/m 9,5 km/h (2 Bft) W-SW 0,00 h 0,8 C -3,4 C 12,7 km/h (3 Bft)
25.02.2023 06:00 1,9 C 7,9 C -39,6 C 1,5 C 0,7 C 0,0 C 86 % 84 % 999,5 hPa 0,0 l/m 3,3 km/h (1 Bft) S 0,00 h -0,1 C 0,2 C 4,7 km/h (1 Bft)
25.02.2023 07:00 1,8 C 7,7 C -39,6 C 1,6 C 1,1 C 0,0 C 88 % 86 % 1000,2 hPa 0,7 l/m 1,7 km/h (1 Bft) W-SW 0,00 h 0,1 C 1,1 C 4,3 km/h (1 Bft)
25.02.2023 08:00 1,9 C 7,6 C -39,6 C 1,7 C 1,3 C 0,0 C 88 % 85 % 1000,9 hPa 0,0 l/m 1,6 km/h (1 Bft) W-SW 0,00 h 0,1 C 1,3 C 2,0 km/h (1 Bft)
25.02.2023 09:00 1,5 C 7,7 C -39,6 C 1,4 C 1,0 C 0,0 C 88 % 85 % 1001,5 hPa 0,7 l/m 2,5 km/h (1 Bft) W-SW 0,00 h -0,2 C 1,0 C 5,4 km/h (1 Bft)
25.02.2023 10:00 1,3 C 7,6 C -39,6 C 1,2 C 1,1 C 0,0 C 88 % 84 % 1002,3 hPa 0,0 l/m 1,6 km/h (1 Bft) NW 0,00 h -0,5 C 1,1 C 2,5 km/h (1 Bft)
25.02.2023 11:00 1,0 C 7,5 C -39,6 C 1,2 C 1,2 C 0,2 C 89 % 84 % 1003,3 hPa 0,0 l/m 1,7 km/h (1 Bft) SW 0,00 h -0,6 C 1,2 C 3,7 km/h (1 Bft)
25.02.2023 12:00 1,1 C 7,4 C -39,6 C 1,3 C 1,3 C 0,3 C 89 % 84 % 1004,0 hPa 0,7 l/m 2,7 km/h (1 Bft) SW 0,00 h -0,5 C 1,3 C 3,2 km/h (1 Bft)
25.02.2023 13:00 0,9 C 7,3 C -39,6 C 1,2 C 1,1 C 0,4 C 89 % 84 % 1004,5 hPa 0,0 l/m 1,8 km/h (1 Bft) W-SW 0,00 h -0,7 C 1,1 C 2,3 km/h (1 Bft)
25.02.2023 14:00 1,0 C 7,3 C -39,6 C 2,2 C 2,2 C 1,2 C 89 % 83 % 1004,9 hPa 0,0 l/m 1,7 km/h (1 Bft) S-SW 0,00 h -0,6 C 2,2 C 2,6 km/h (1 Bft)
25.02.2023 15:00 0,7 C 7,2 C -39,6 C 1,0 C 1,0 C 0,3 C 89 % 83 % 1005,5 hPa 0,7 l/m 1,1 km/h (1 Bft) SW 0,00 h -0,9 C 1,0 C 1,9 km/h (1 Bft)
25.02.2023 16:00 0,6 C 7,1 C -39,6 C 0,9 C 0,9 C 0,3 C 89 % 83 % 1006,4 hPa 0,0 l/m 1,1 km/h (0 Bft) W-NW 0,00 h -1,0 C 0,9 C 1,7 km/h (1 Bft)
25.02.2023 17:00 -0,1 C 7,0 C -39,6 C -0,2 C -0,4 C 0,0 C 89 % 83 % 1007,2 hPa 0,0 l/m 0,8 km/h (0 Bft) SW 0,00 h -1,7 C -0,4 C 1,7 km/h (1 Bft)
25.02.2023 18:00 -0,1 C 7,0 C -39,6 C -0,2 C -0,3 C 0,0 C 89 % 85 % 1008,2 hPa 0,0 l/m 0,5 km/h (0 Bft) N-NO 0,00 h -1,7 C -0,3 C 1,2 km/h (1 Bft)
25.02.2023 19:00 -0,6 C 6,8 C -39,6 C -0,7 C -0,8 C 0,0 C 88 % 84 % 1009,0 hPa 0,0 l/m 1,2 km/h (1 Bft) W 0,00 h -2,3 C -0,8 C 2,6 km/h (1 Bft)
25.02.2023 20:00 -0,9 C 6,7 C -39,6 C -0,9 C -1,0 C 0,0 C 88 % 83 % 1009,9 hPa 0,0 l/m 0,6 km/h (0 Bft) N-NO 0,00 h -2,6 C -1,0 C 2,4 km/h (1 Bft)
25.02.2023 21:00 -1,0 C 6,6 C -39,6 C -1,1 C -1,3 C 0,0 C 88 % 83 % 1010,7 hPa 0,0 l/m 0,1 km/h (0 Bft) N 0,00 h -2,7 C -1,3 C 0,7 km/h (0 Bft)
25.02.2023 22:00 -1,3 C 6,5 C -39,6 C -1,5 C -1,8 C 0,0 C 87 % 82 % 1010,9 hPa 0,0 l/m 0,2 km/h (0 Bft) N 0,00 h -3,2 C -1,8 C 0,5 km/h (0 Bft)
25.02.2023 23:00 -1,6 C 6,5 C -39,6 C -1,7 C -1,8 C 0,0 C 86 % 82 % 1011,5 hPa 0,0 l/m 0,1 km/h (0 Bft) N 0,00 h -3,6 C -1,8 C 0,2 km/h (0 Bft)
26.02.2023 00:00 -1,8 C 6,6 C -39,6 C -1,9 C -2,2 C 0,0 C 87 % 83 % 1012,0 hPa 0,0 l/m 0,1 km/h (0 Bft) N 0,00 h -3,7 C -2,2 C 0,7 km/h (0 Bft)
26.02.2023 01:00 -2,0 C 6,6 C -39,6 C -2,1 C -2,4 C 0,0 C 87 % 84 % 1012,3 hPa 0,0 l/m 0,1 km/h (0 Bft) N 0,00 h -3,8 C -2,4 C 0,4 km/h (0 Bft)
26.02.2023 02:00 -1,9 C 6,5 C -39,6 C -2,0 C -2,3 C 0,0 C 88 % 84 % 1012,3 hPa 0,0 l/m 0,1 km/h (0 Bft) N 0,00 h -3,6 C -2,3 C 1,1 km/h (1 Bft)
26.02.2023 03:00 -1,9 C 6,5 C -39,6 C -2,0 C -2,2 C 0,0 C 89 % 84 % 1012,8 hPa 0,0 l/m 0,1 km/h (0 Bft) N 0,00 h -3,5 C -2,2 C 0,1 km/h (0 Bft)
26.02.2023 04:00 -1,9 C 6,5 C -39,6 C -2,0 C -2,2 C 0,0 C 89 % 84 % 1013,2 hPa 0,0 l/m 0,0 km/h (0 Bft) N 0,00 h -3,5 C -2,2 C 0,0 km/h (0 Bft)
26.02.2023 05:00 -1,7 C 6,4 C -39,6 C -1,8 C -2,1 C 0,0 C 89 % 85 % 1014,4 hPa 0,0 l/m 0,1 km/h (0 Bft) N 0,00 h -3,3 C -2,1 C 0,1 km/h (0 Bft)
26.02.2023 06:00 -1,8 C 6,4 C -39,6 C -1,9 C -2,1 C 0,0 C 89 % 84 % 1015,4 hPa 0,0 l/m 0,2 km/h (0 Bft) N 0,00 h -3,4 C -2,1 C 0,0 km/h (0 Bft)
26.02.2023 07:00 -1,8 C 6,3 C -39,6 C -1,7 C -1,8 C 0,1 C 89 % 84 % 1015,9 hPa 0,0 l/m 0,2 km/h (0 Bft) N 0,00 h -3,3 C -1,8 C 0,0 km/h (0 Bft)
26.02.2023 08:00 -1,6 C 6,3 C -39,6 C -1,0 C -1,0 C 0,6 C 89 % 83 % 1016,6 hPa 0,0 l/m 0,2 km/h (0 Bft) N 0,00 h -3,2 C -1,0 C 0,6 km/h (0 Bft)
26.02.2023 09:00 -1,0 C 6,1 C -39,6 C 0,3 C 0,3 C 1,3 C 89 % 81 % 1017,8 hPa 0,0 l/m 0,3 km/h (0 Bft) N 0,00 h -2,6 C 0,3 C 0,5 km/h (0 Bft)
26.02.2023 10:00 -0,2 C 6,0 C -39,6 C 1,4 C 1,4 C 1,6 C 89 % 78 % 1018,5 hPa 0,7 l/m 0,1 km/h (0 Bft) N 0,00 h -1,9 C 1,4 C 0,0 km/h (0 Bft)
26.02.2023 11:00 0,4 C 5,8 C -39,6 C 1,6 C 1,6 C 1,2 C 87 % 74 % 1019,7 hPa 0,0 l/m 0,0 km/h (0 Bft) N 0,00 h -1,6 C 1,6 C 0,0 km/h (0 Bft)
26.02.2023 12:00 0,8 C 5,8 C -39,6 C 1,6 C 1,6 C 0,8 C 84 % 71 % 1020,2 hPa 0,0 l/m 0,0 km/h (0 Bft) N 0,00 h -1,6 C 1,6 C 0,0 km/h (0 Bft)
26.02.2023 13:00 1,3 C 5,7 C -39,6 C 1,6 C 1,6 C 0,4 C 81 % 70 % 1020,4 hPa 0,0 l/m 0,0 km/h (0 Bft) N 0,00 h -1,6 C 1,6 C 0,0 km/h (0 Bft)
26.02.2023 14:00 1,1 C 5,7 C -39,6 C 0,9 C 0,4 C 0,1 C 79 % 70 % 1021,3 hPa 0,7 l/m 0,0 km/h (0 Bft) N 0,00 h -2,2 C 0,4 C 0,0 km/h (0 Bft)
26.02.2023 15:00 1,3 C 5,7 C -39,6 C 0,8 C 0,0 C 0,0 C 79 % 75 % 1021,6 hPa 0,0 l/m 0,0 km/h (0 Bft) N 0,00 h -2,0 C 0,0 C 0,0 km/h (0 Bft)
26.02.2023 16:00 0,8 C 5,7 C -39,6 C 0,5 C 0,0 C 0,0 C 77 % 74 % 1021,7 hPa 0,7 l/m 0,0 km/h (0 Bft) N 0,00 h -2,8 C 0,0 C 0,0 km/h (0 Bft)
26.02.2023 17:00 -0,1 C 5,8 C -39,6 C 0,1 C 0,0 C 0,2 C 78 % 78 % 1022,0 hPa 0,0 l/m 0,0 km/h (0 Bft) N 0,00 h -3,4 C 0,0 C 0,0 km/h (0 Bft)
26.02.2023 18:00 -1,0 C 5,9 C -39,6 C -0,7 C -1,1 C 0,5 C 80 % 82 % 1022,4 hPa 0,0 l/m 0,0 km/h (0 Bft) N 0,00 h -4,0 C -1,1 C 0,0 km/h (0 Bft)
26.02.2023 19:00 -1,6 C 6,0 C -39,6 C -2,1 C -3,1 C 0,0 C 82 % 82 % 1023,7 hPa 0,0 l/m 0,0 km/h (0 Bft) N 0,00 h -4,3 C -3,1 C 0,0 km/h (0 Bft)
26.02.2023 20:00 -2,0 C 5,9 C -39,6 C -2,3 C -2,7 C 0,0 C 84 % 83 % 1024,4 hPa 0,0 l/m 0,0 km/h (0 Bft) N 0,00 h -4,4 C -2,7 C 0,0 km/h (0 Bft)
26.02.2023 21:00 -2,3 C 5,8 C -39,6 C -2,8 C -3,6 C 0,0 C 84 % 83 % 1025,5 hPa 0,0 l/m 0,0 km/h (0 Bft) N 0,00 h -4,6 C -3,6 C 0,0 km/h (0 Bft)
26.02.2023 22:00 -2,6 C 5,9 C -39,6 C -3,1 C -4,2 C 0,0 C 84 % 83 % 1025,8 hPa 0,0 l/m 0,0 km/h (0 Bft) N 0,00 h -4,9 C -4,2 C 0,0 km/h (0 Bft)
26.02.2023 23:00 -3,6 C 5,9 C -39,6 C -4,2 C -5,4 C 0,0 C 85 % 84 % 1026,2 hPa 0,0 l/m 0,0 km/h (0 Bft) N 0,00 h -5,8 C -5,4 C 0,0 km/h (0 Bft)
Min-Datum _ 26.02.23 26.02.23 21.02.23 26.02.23 26.02.23 20.02.23 20.02.23 23.02.23 25.02.23 - 20.02.23 - - 26.02.23 26.02.23 20.02.23
_ Min-Zeit 23:55 12:55 19:45 23:55 23:55 04:26 14:40 08:46 03:25 - 00:00 - - 23:55 23:55 00:00
Minimum _ -4,1 C 5,7 C -39,6 C -4,8 C -6,1 C 0,0 C 65 % 0 % 998,9 hPa - 0,0 km/h (0 Bft) - - -6,2 C -6,1 C 0,0 km/h (0 Bft)
Max-Datum _ 23.02.23 23.02.23 23.02.23 22.02.23 22.02.23 24.02.23 20.02.23 20.02.23 26.02.23 24.02.23 20.02.23 - 23.02.23 23.02.23 22.02.23 20.02.23
_ Max-Zeit 14:55 22:00 08:46 14:41 14:41 12:11 00:00 00:00 23:05 19:00 12:40 - 10:31 14:55 14:41 18:26
Maximum _ 13,0 C 10,4 C 0,0 C 15,9 C 15,9 C 4,0 C 89 % 99 % 1026,2 hPa 2,7 l/m 15,1 km/h
SW (3 Bft)
- 0,33 h 8,9 C 15,9 C 29,5 km/h
SW (5 Bft)
Durchschnitt _ 5,6 C 8,6 C -35,4 C 5,9 C 5,6 C 0,5 C 83 % 87 % 1013,0 hPa #15,1 l/m 2,6 km/h (1 Bft) SW #3:55 h 2,9 C 5,4 C 3,7 km/h (1 Bft)
2023 www.wetterstation-wechselburg.de